Wind_Speed
45 44 45 48 49 47 44 42 41 41 42 40 38 37 39 40 41 40 37 34 34 33 33 33 31 33 37 36 35 34 34 34 35 34 35 36 35 35 35 35 35 36 36 34 33 32 33 32 31 31 32 32 32 32 33 33 34 34 34 35 36 36 36 37 37 38 39 40 41 43 44 45 47 49 50 51 52 53 54 55 57 59 60 62 64 65
47 46 48 52 50 47 45 45 44 43 44 42 39 39 40 41 41 42 40 37 35 33 33 35 32 33 37 37 36 35 35 37 37 35 35 37 37 37 36 36 37 37 37 36 34 34 34 33 33 33 33 34 34 34 35 35 36 36 36 36 37 38 39 40 41 41 42 43 44 45 47 49 50 51 52 54 55 56 57 58 60 61 63 64 66 68
49 48 51 53 50 48 48 48 47 45 45 44 42 40 40 42 42 42 42 40 37 34 34 35 33 33 36 38 38 37 36 38 38 37 37 37 38 39 38 38 38 38 38 38 37 36 35 35 35 35 35 35 36 36 37 37 37 37 38 38 39 40 41 42 43 44 45 46 47 48 50 51 53 54 55 57 58 59 60 61 62 64 66 67 69 70
50 51 53 53 51 51 51 50 49 47 45 45 44 42 41 43 44 43 44 42 39 37 35 36 33 32 35 38 40 40 37 38 40 40 39 37 38 40 40 40 39 39 38 39 39 38 37 37 37 37 37 37 38 38 38 39 39 39 39 40 41 42 43 45 46 47 48 49 50 51 53 54 56 57 58 59 60 62 63 64 65 67 68 70 70 71
52 54 54 53 54 54 53 52 51 49 46 46 46 45 44 45 45 44 45 43 40 38 38 37 33 30 35 38 40 43 40 39 41 41 40 40 40 41 41 42 41 40 39 40 41 40 39 39 38 39 39 39 39 39 40 41 41 42 42 43 44 45 46 47 48 49 50 51 52 54 56 57 59 60 61 62 63 65 66 67 68 69 70 71 71 72
53 55 55 54 56 56 55 54 53 51 49 47 46 47 47 47 46 45 45 43 41 40 40 40 33 29 35 39 42 45 43 40 41 41 42 43 43 42 42 43 43 42 41 41 42 42 41 41 41 41 41 41 41 41 41 42 43 44 45 46 47 48 49 49 50 52 53 54 56 57 59 61 62 63 65 66 67 68 68 69 70 70 70 71 72 74
54 57 57 56 57 58 57 55 55 53 51 48 47 49 49 48 47 46 45 44 42 41 41 41 36 31 34 40 44 45 42 42 42 43 44 45 43 43 43 44 45 44 44 43 44 44 44 43 43 43 43 43 42 42 43 44 44 45 47 48 49 50 51 52 53 54 55 57 58 60 62 64 65 66 67 68 69 69 69 69 69 70 70 72 74 75
55 58 59 57 57 58 58 58 58 56 52 49 49 51 50 48 48 47 47 45 43 42 41 41 41 35 31 39 47 44 40 43 46 47 47 46 44 43 44 45 46 47 46 46 46 46 46 46 45 45 46 45 44 45 45 46 46 47 48 49 50 51 52 54 55 56 57 58 60 62 64 65 66 67 68 68 68 68 68 68 69 70 72 74 75 76
57 58 58 59 59 58 59 60 60 58 54 50 51 52 51 50 49 48 48 47 45 42 38 40 46 40 30 36 45 45 43 46 48 49 48 47 45 44 44 45 47 48 48 48 48 48 48 48 48 48 48 48 47 48 48 48 48 49 50 51 52 53 54 55 56 56 58 59 61 63 64 65 66 66 67 67 66 67 67 69 70 73 74 75 76 77
57 57 58 60 60 60 61 62 60 58 55 52 53 53 52 52 51 49 48 47 46 41 37 43 50 44 33 34 40 44 49 51 50 50 50 49 47 45 46 46 47 49 50 50 50 50 50 50 50 50 50 50 50 51 50 50 51 51 52 53 53 54 55 56 57 58 59 61 63 64 65 65 65 65 65 65 66 67 69 71 73 74 75 76 77 77
57 58 59 59 60 61 62 62 60 59 57 55 55 55 55 53 51 49 47 47 46 40 41 48 52 46 34 32 37 43 51 54 52 53 52 52 50 48 48 48 48 50 50 51 51 52 52 52 53 53 52 53 53 53 53 53 54 54 54 55 55 56 56 57 58 60 61 63 65 65 65 64 64 65 65 66 68 69 71 73 74 76 76 77 77 78
59 59 59 60 61 61 62 62 62 62 59 58 57 56 55 52 49 49 48 49 46 42 47 52 53 47 34 31 37 43 49 52 53 54 54 55 54 52 50 49 50 51 51 51 52 52 53 54 54 54 54 54 55 55 55 55 55 56 56 56 57 58 58 59 60 62 64 65 66 65 64 64 65 66 67 69 70 72 73 74 75 76 76 77 78 78
59 60 61 61 61 61 62 63 64 63 61 60 57 56 55 52 50 49 49 50 47 45 49 52 51 46 36 35 41 45 48 50 52 55 56 57 56 55 53 52 51 51 52 53 53 53 54 54 55 55 55 56 56 56 56 56 56 57 57 58 58 59 60 61 62 64 65 65 65 64 65 66 67 68 69 71 72 73 74 75 75 76 76 77 78 79
62 61 62 62 62 63 64 64 64 63 62 59 57 57 55 53 51 50 50 51 47 46 49 50 49 44 39 41 45 46 48 50 51 55 57 58 57 57 56 55 54 53 53 54 54 54 55 56 56 56 57 57 58 58 58 58 58 58 58 59 59 60 61 62 63 64 64 64 65 65 67 68 68 70 71 72 73 74 74 75 76 76 78 79 80 82
63 62 61 63 64 64 64 63 63 62 61 59 58 58 54 54 55 52 51 50 47 47 48 47 46 43 42 45 46 46 49 52 54 57 58 59 58 58 57 57 56 56 56 56 56 57 57 57 58 58 58 59 59 59 59 59 59 59 59 59 59 60 61 62 63 64 65 66 67 68 68 69 69 70 71 72 73 74 75 75 77 78 79 81 82 84
63 61 61 63 63 62 62 62 61 61 60 59 58 57 55 58 59 55 51 50 49 48 45 45 45 43 44 45 45 47 50 55 57 57 59 60 60 60 59 59 58 58 58 58 58 58 58 58 58 58 58 58 59 59 58 58 58 58 58 59 60 61 62 63 65 66 67 68 68 69 69 69 70 70 71 72 73 75 76 77 78 80 82 83 85 86
65 62 61 62 62 62 62 61 62 61 60 59 58 58 60 62 62 59 54 52 52 48 43 44 44 43 44 43 44 50 53 56 58 58 59 60 60 61 60 60 59 59 59 58 58 58 58 58 58 58 58 58 58 58 58 58 58 59 59 60 62 63 65 66 67 68 68 68 68 69 69 70 70 71 72 74 75 76 78 79 80 82 84 85 86 88
67 64 61 61 62 63 64 63 63 61 60 60 59 61 64 65 63 62 58 55 54 50 45 44 44 43 43 41 44 51 54 54 56 58 60 61 62 61 60 60 60 59 59 59 59 59 59 59 58 58 58 58 58 58 59 59 60 61 62 63 65 66 66 67 67 67 67 68 68 69 70 71 72 73 75 76 78 78 79 80 82 84 85 87 89 90
70 65 62 61 62 63 64 65 63 61 62 62 63 65 66 66 64 63 61 58 57 54 49 46 46 43 40 41 45 49 51 52 54 56 60 62 63 62 61 61 61 61 61 60 60 60 60 60 59 59 59 58 59 59 60 61 62 63 64 64 65 65 65 66 66 66 67 68 69 70 72 73 74 76 77 78 79 80 81 83 84 86 88 89 90 92
72 69 65 63 64 65 65 64 63 63 65 66 67 67 66 66 65 65 64 61 60 59 54 48 45 41 39 41 44 46 49 52 53 55 59 62 63 63 62 61 62 62 62 61 62 62 61 61 60 60 60 60 60 61 62 63 63 63 63 63 64 64 65 66 66 67 68 70 71 73 74 76 76 78 79 80 81 82 83 85 87 88 89 90 91 93
76 73 69 67 68 68 66 65 65 67 68 67 67 67 67 67 68 67 65 63 64 63 57 50 42 37 39 41 43 48 51 52 53 55 59 61 62 63 62 62 61 62 62 62 63 63 63 63 62 62 62 62 62 62 62 62 62 62 62 63 64 65 66 67 68 69 71 73 75 76 77 78 79 80 81 82 83 84 86 88 89 90 91 92 93 94
77 76 74 72 70 68 68 68 68 68 68 67 68 68 69 70 71 71 68 67 68 65 58 52 41 35 39 42 45 53 55 52 53 55 58 61 61 62 63 63 62 62 62 63 63 64 63 63 62 62 62 63 63 62 62 62 62 63 64 65 66 67 68 69 71 73 75 76 78 79 80 81 82 83 84 85 86 87 89 90 92 92 92 93 95 96
78 78 76 74 71 70 70 69 68 68 68 69 69 69 70 71 72 74 72 70 70 64 59 57 47 37 39 44 49 57 57 54 54 55 59 61 61 62 63 64 64 62 61 62 62 62 62 61 61 61 62 63 63 63 64 64 65 66 67 68 69 70 71 72 74 76 78 79 80 81 82 83 84 85 86 88 89 91 92 93 93 93 93 95 97 99
82 82 80 78 76 74 72 70 69 69 70 70 69 70 73 74 74 77 76 73 71 63 60 62 53 40 42 48 53 57 58 58 57 57 59 62 61 62 62 63 64 63 62 62 61 62 62 62 63 63 64 65 65 66 66 66 68 69 70 71 72 73 74 76 77 79 80 82 83 84 85 86 87 88 89 91 92 93 93 94 93 93 94 96 98 100
86 88 86 84 81 78 75 72 71 71 71 71 72 73 75 76 77 78 78 78 72 61 61 66 55 44 49 54 53 55 58 60 61 60 61 62 63 63 62 62 63 63 64 64 63 63 63 64 65 66 67 67 67 68 68 69 71 72 73 74 75 76 77 79 80 82 83 84 85 86 87 87 89 90 92 93 93 94 95 95 94 95 96 99 102 103
90 91 90 88 85 81 77 75 74 74 76 75 74 75 76 77 79 79 80 80 72 63 66 66 57 52 56 58 56 58 59 61 62 63 62 63 64 66 65 64 64 65 66 66 65 65 65 66 66 67 68 69 69 70 71 72 73 74 75 76 77 78 80 82 83 84 85 86 86 86 87 89 91 92 94 94 95 96 97 97 97 98 100 103 105 106
92 93 92 90 87 82 78 77 79 79 79 78 76 77 77 78 79 81 81 78 72 72 70 62 59 59 58 59 62 62 62 63 63 65 65 65 66 67 68 68 67 67 67 67 67 67 67 68 68 69 70 71 71 72 73 74 75 76 78 79 80 82 83 85 85 85 86 86 86 87 89 91 93 94 96 96 97 98 98 99 99 101 103 105 107 108
94 94 92 90 88 84 81 81 84 83 82 81 80 80 80 80 81 82 80 75 76 81 71 58 63 65 57 59 65 63 65 67 66 67 68 67 67 67 68 69 69 69 69 69 69 70 70 70 70 71 72 72 73 75 75 77 78 79 81 82 84 85 86 86 86 86 86 87 88 90 92 94 95 96 97 98 98 99 100 101 102 103 105 106 108 108
97 95 93 92 90 87 84 85 87 87 86 85 85 84 83 83 83 81 79 77 81 85 73 62 69 68 58 61 65 64 69 72 69 69 69 67 68 68 68 70 70 71 71 71 71 71 71 72 71 72 73 74 75 76 78 79 81 83 84 86 87 87 87 87 87 88 88 89 91 93 95 96 96 97 97 98 99 101 102 103 103 104 105 107 108 108
99 97 95 94 93 89 86 87 90 92 92 90 89 88 86 85 84 81 82 82 83 84 76 70 74 69 59 63 67 67 72 73 72 71 70 69 70 69 69 71 71 71 72 72 73 73 73 73 73 74 75 76 78 79 81 82 84 85 86 87 88 88 89 90 90 90 91 92 93 95 95 96 96 96 97 98 100 101 102 103 103 104 105 106 107 107
100 99 97 97 97 93 88 89 93 96 96 94 92 91 87 84 83 84 84 83 84 84 79 77 79 69 61 67 72 72 73 73 72 72 71 71 72 72 72 73 72 73 74 74 75 74 74 76 76 77 79 80 81 82 83 85 86 87 88 89 90 91 91 92 91 91 92 93 94 95 95 95 96 97 98 99 100 101 102 103 104 104 105 106 107 107
102 101 100 101 102 97 91 94 98 100 101 100 96 89 83 82 86 88 87 85 85 85 82 82 80 70 67 74 77 74 75 76 75 74 73 74 75 75 75 74 74 75 76 77 76 76 78 79 80 82 82 83 84 84 86 87 88 88 89 90 91 92 92 92 92 92 93 94 95 95 95 96 97 98 99 100 101 102 103 104 104 105 105 106 107 108
103 103 102 103 103 99 95 98 102 102 104 102 93 83 81 85 90 92 90 87 86 86 85 83 79 73 73 77 77 77 79 79 78 77 77 76 77 77 77 76 77 78 79 79 78 79 81 83 84 85 85 86 87 87 88 89 89 90 91 91 91 91 91 92 93 94 95 95 95 95 96 98 98 99 100 101 103 104 104 105 105 106 106 107 108 110
104 104 103 104 103 100 97 100 103 105 104 96 87 82 84 87 90 91 91 88 87 87 87 84 79 76 76 78 79 81 81 80 81 81 80 79 79 79 80 80 80 81 81 81 81 82 84 85 87 87 87 88 88 88 89 90 91 92 92 91 91 91 91 93 94 95 96 96 96 97 98 99 100 101 102 103 104 105 106 107 107 107 108 109 111 113
105 104 104 104 104 101 100 102 105 106 100 91 87 87 87 87 88 91 91 89 86 87 88 87 83 80 79 81 83 83 83 83 84 84 82 82 82 83 84 84 84 84 84 84 84 86 88 88 88 89 89 89 90 90 90 91 92 92 91 91 91 92 93 94 95 96 97 97 98 99 100 101 102 104 105 106 106 107 108 109 109 110 111 113 115 117
106 105 104 104 103 102 102 103 105 104 98 92 89 88 87 88 90 93 93 90 87 88 91 91 87 83 83 85 86 86 86 87 87 85 84 85 86 88 89 89 88 88 87 87 87 87 88 89 90 90 91 91 91 91 92 92 92 92 92 92 93 94 95 95 96 98 99 99 100 101 102 103 105 106 107 108 109 109 110 111 112 113 115 117 119 120
107 107 106 106 105 104 104 104 105 104 100 94 89 87 89 91 93 95 97 93 89 90 93 93 90 87 88 89 89 89 90 90 88 86 86 88 91 92 92 92 92 91 89 89 88 87 88 89 90 91 92 92 92 92 92 93 93 93 93 94 95 96 97 97 99 100 101 101 102 103 105 106 108 109 110 110 111 112 113 114 116 118 120 121 123 124
108 108 107 107 107 105 105 105 105 105 101 93 90 91 94 95 96 99 101 96 90 90 94 95 94 92 92 92 92 92 92 91 88 86 87 91 93 93 93 92 92 91 90 89 88 88 89 90 91 92 92 92 93 93 94 94 94 94 95 96 97 98 98 100 102 103 103 104 105 106 108 109 111 112 112 113 113 115 116 118 120 122 124 125 126 128
108 107 108 109 108 106 105 105 105 105 100 93 91 94 96 96 98 101 102 96 90 91 96 98 97 95 94 93 93 93 93 91 88 86 89 91 91 91 91 90 90 90 90 90 90 91 91 92 92 93 93 94 95 95 96 96 96 96 97 98 99 100 101 103 104 104 105 107 108 110 111 112 113 114 115 115 117 118 120 122 125 126 127 129 130 131
108 108 109 110 110 108 107 107 105 103 100 96 95 97 98 99 101 104 103 96 92 94 97 98 96 94 93 92 92 91 91 89 88 87 89 90 90 90 90 90 90 91 91 91 92 92 93 94 94 95 95 96 97 97 98 98 98 99 100 101 102 103 105 106 106 107 109 110 112 113 114 115 116 116 117 119 120 122 124 126 128 129 131 132 133 134
109 109 109 110 109 109 109 108 107 104 100 97 98 99 101 103 104 104 103 99 97 97 96 94 93 92 91 91 90 90 89 88 87 87 88 89 89 89 90 90 90 90 91 91 92 93 94 94 95 96 97 98 98 99 100 100 101 102 102 103 105 106 108 108 109 110 112 113 115 116 117 118 118 119 121 122 124 126 128 129 131 132 134 135 136 138
109 109 110 109 109 108 108 109 109 106 101 98 99 100 101 103 103 101 100 99 98 96 94 93 92 91 91 91 91 90 90 89 88 88 89 89 89 89 90 90 90 90 91 92 92 93 94 95 96 97 98 99 100 101 102 103 104 105 106 107 108 110 110 111 112 114 115 117 118 119 119 120 121 123 124 126 127 129 130 132 134 135 136 138 139 140
110 110 111 110 109 109 109 110 110 107 102 101 102 103 102 102 102 100 99 98 96 95 94 95 94 93 93 92 92 92 92 91 91 91 91 92 92 92 92 92 93 93 94 94 95 96 96 97 98 99 100 102 103 104 105 106 107 108 109 111 112 113 114 115 116 118 119 120 120 121 122 123 124 126 127 129 130 132 133 135 136 138 139 141 142 143
113 112 111 110 110 111 112 111 110 108 105 104 105 104 104 104 103 102 101 100 99 98 97 97 96 96 95 95 95 95 95 95 95 95 95 96 96 96 96 97 97 97 98 99 99 100 101 102 103 103 104 105 107 108 109 110 111 112 114 115 116 117 118 119 120 121 121 122 123 124 125 126 128 129 130 132 133 134 136 137 139 140 142 143 145 146
115 114 113 113 113 114 114 113 112 110 109 108 107 107 107 106 106 105 104 104 103 102 101 100 100 100 99 99 99 98 98 99 99 99 99 100 100 100 101 101 102 102 103 103 104 104 105 106 107 108 109 110 111 112 113 114 115 116 117 119 120 120 121 122 123 123 124 125 126 127 128 129 131 132 133 135 136 137 139 140 142 143 144 146 148 149
118 117 116 115 116 116 115 114 113 112 111 111 110 110 110 109 109 108 108 107 107 106 105 105 105 104 104 104 103 103 103 103 103 103 103 103 104 104 105 105 106 106 107 107 108 109 110 110 111 112 113 114 115 116 116 118 119 120 121 122 123 124 125 125 126 126 127 128 129 130 131 132 133 135 136 138 139 141 142 143 144 146 147 149 150 152
120 119 118 117 117 117 116 115 115 114 113 113 113 112 112 112 112 112 111 111 110 110 109 109 109 109 109 109 108 108 108 107 108 108 108 108 108 109 109 109 109 110 110 111 112 113 114 115 116 116 117 118 119 120 121 121 122 123 124 125 126 127 127 128 129 129 130 131 132 133 134 135 137 138 139 141 142 144 145 146 147 148 150 151 153 154
121 121 120 119 119 118 117 116 116 116 115 115 115 115 115 115 115 115 114 114 113 113 113 113 113 113 113 113 112 112 112 112 113 113 112 113 113 113 113 113 113 114 114 115 116 117 118 119 119 120 121 122 123 123 124 125 126 126 127 128 130 130 131 131 132 132 133 134 135 136 138 139 140 142 143 144 146 147 148 149 150 151 152 153 154 155
123 122 122 121 121 120 119 118 118 118 118 117 117 117 117 118 118 117 117 116 116 116 116 116 116 116 116 116 116 116 116 117 117 116 116 116 116 117 117 117 117 118 119 119 120 121 122 123 124 124 125 125 126 127 127 128 129 130 131 132 133 134 134 134 135 135 136 137 138 139 141 142 144 145 146 148 149 150 151 152 153 154 154 155 156 156
125 124 124 124 124 123 122 122 121 120 120 119 119 119 119 119 119 119 119 119 119 119 119 118 118 118 119 119 119 120 120 120 120 120 120 120 120 121 121 121 122 123 123 124 125 125 126 127 128 128 129 129 129 130 130 131 132 133 134 135 136 136 137 137 138 139 139 140 142 143 144 146 147 148 149 151 152 153 154 154 155 156 156 156 156 154
128 128 128 127 126 125 125 124 124 123 121 121 121 121 121 121 121 121 122 122 122 122 121 121 121 121 122 122 123 123 124 124 124 124 124 124 124 125 125 126 126 127 128 128 129 129 130 131 131 132 132 133 133 134 134 135 136 136 137 138 138 139 140 140 141 142 143 144 145 146 147 149 150 151 152 153 154 155 156 156 157 156 156 155 153 152
Wind_Direction
258 258 259 259 258 259 261 262 260 259 260 259 258 258 258 261 263 263 261 259 259 260 260 258 256 257 260 261 261 263 262 260 256 255 255 256 254 254 256 259 260 261 262 263 263 264 265 266 266 266 266 265 264 263 262 263 264 265 267 268 270 273 275 277 279 281 282 285 287 289 290 291 292 293 295 296 298 299 300 300 300 301 302 302 303 303
257 257 258 258 259 260 261 261 261 260 260 261 260 259 259 260 261 263 263 261 259 259 259 260 257 255 259 262 262 261 260 261 260 257 254 254 255 255 256 258 260 262 263 263 263 263 264 264 265 266 266 267 266 265 265 264 265 266 268 269 271 273 274 276 278 279 281 283 284 286 288 289 290 291 293 295 296 297 297 298 298 299 300 301 301 301
256 256 257 259 260 261 261 261 261 261 262 262 261 259 260 261 260 261 262 262 261 260 258 260 259 255 257 261 263 262 260 261 262 259 256 254 254 256 257 258 258 260 263 265 264 264 263 263 264 265 266 267 267 266 266 266 267 267 268 270 271 272 274 275 276 278 279 281 283 285 286 287 289 290 292 293 294 295 296 296 297 298 299 299 300 300
256 256 257 259 260 261 261 261 261 261 262 263 263 261 260 260 260 260 261 261 262 262 261 261 260 257 257 260 263 261 259 259 261 261 260 258 255 255 257 258 258 259 261 264 266 266 265 264 264 265 266 267 267 267 267 267 268 268 269 270 270 272 273 274 276 277 279 281 283 284 285 286 288 289 290 292 293 294 294 295 296 297 298 298 299 299
256 257 258 259 260 260 261 262 262 262 261 262 264 263 261 260 260 260 261 262 262 263 262 262 261 258 257 261 262 259 258 259 261 262 263 262 259 256 255 257 259 260 261 262 265 266 266 266 266 266 266 267 268 268 268 268 268 269 270 270 271 272 274 275 276 278 280 282 283 283 284 286 287 288 289 290 291 292 293 294 295 296 297 297 298 299
256 258 258 259 261 261 262 262 263 263 262 261 262 263 263 262 262 262 262 263 263 263 263 263 261 257 259 261 258 258 262 263 261 261 262 261 261 260 258 258 259 260 260 262 264 265 266 266 266 266 267 267 268 269 270 270 270 270 270 271 272 273 274 276 278 280 281 282 283 283 284 285 286 287 288 289 290 291 292 293 294 295 296 297 298 299
257 258 258 259 260 263 264 264 264 263 262 262 262 262 262 263 263 264 263 263 263 263 263 265 262 256 259 262 258 258 265 266 263 260 259 260 260 261 261 261 261 261 261 262 263 265 266 266 267 267 267 268 268 269 269 270 270 271 271 272 273 274 275 277 278 280 281 282 283 284 285 286 286 287 288 289 290 291 292 293 293 294 295 296 298 298
255 257 259 259 260 262 264 264 264 263 263 263 263 263 263 263 263 264 264 264 263 262 264 267 264 256 255 261 263 263 264 263 263 261 261 261 261 261 261 262 263 263 263 263 264 265 267 267 268 268 268 268 269 269 269 270 270 271 272 272 273 274 275 277 278 280 281 283 284 285 286 286 286 287 288 289 290 291 292 292 293 294 295 297 297 297
254 256 259 260 260 260 261 262 263 264 265 264 264 264 265 264 263 263 263 264 264 264 265 265 263 258 250 255 265 270 267 262 261 263 265 265 264 262 260 260 261 262 263 263 264 265 266 267 267 268 268 269 269 269 270 270 271 271 272 273 274 275 276 277 278 280 281 283 284 285 285 286 286 287 288 289 290 290 291 292 293 294 295 296 296 296
255 255 256 258 260 261 260 261 263 265 265 265 264 264 264 263 263 262 263 265 266 268 268 263 262 259 251 251 262 270 270 268 266 266 267 267 266 265 262 260 259 260 261 263 264 264 265 265 266 267 267 268 269 269 270 271 272 272 273 273 274 275 276 277 279 280 281 282 284 285 286 286 286 287 288 289 290 290 291 292 293 294 294 294 295 295
255 254 254 256 258 259 261 262 263 263 262 262 262 262 262 263 265 267 267 266 266 266 263 261 261 262 258 254 256 260 265 268 270 270 270 270 269 267 265 265 263 263 262 263 264 264 265 266 266 267 268 268 269 270 270 271 272 272 273 274 275 275 277 278 278 279 281 282 284 285 286 286 286 287 288 288 289 290 291 292 293 293 293 294 295 296
254 253 253 253 255 257 259 260 260 261 261 261 261 263 264 266 268 269 268 267 266 262 259 260 263 266 264 254 251 254 260 265 268 269 270 270 271 269 268 267 267 267 267 267 266 266 266 267 267 268 268 269 269 270 270 271 271 272 273 274 275 276 277 277 278 279 281 282 284 285 285 285 286 286 287 288 289 290 291 292 292 292 293 294 295 296
250 250 251 251 252 254 256 257 259 260 261 262 264 265 266 267 268 268 268 267 266 264 261 262 266 270 268 256 251 252 256 261 265 267 268 268 269 270 269 268 268 268 269 269 269 268 268 268 269 270 270 270 270 271 271 272 273 273 274 275 276 277 277 278 279 280 281 282 283 283 283 284 285 286 288 289 290 290 291 291 292 293 294 295 296 296
248 249 251 252 251 252 254 257 259 261 262 264 265 266 266 268 268 267 266 266 267 266 265 265 268 270 267 259 256 256 257 259 260 262 264 266 267 268 269 269 268 268 268 269 270 270 270 271 272 272 272 273 273 273 274 274 275 275 276 276 277 278 278 279 280 280 281 281 281 282 283 285 286 287 288 289 290 290 290 291 292 294 295 295 296 296
251 251 252 253 254 255 256 258 260 262 264 266 266 267 268 269 266 264 264 266 267 266 266 268 269 267 263 259 260 262 262 260 258 258 261 263 265 266 267 268 269 269 270 270 271 272 272 273 274 274 274 275 275 275 276 276 276 276 277 277 277 278 278 279 279 279 280 280 282 283 285 286 287 288 288 289 289 290 291 293 294 295 295 295 295 296
253 253 253 254 257 259 259 260 261 262 263 265 266 268 268 266 264 263 263 264 264 264 266 269 269 267 262 260 262 262 261 261 261 262 263 264 265 266 266 268 269 270 271 271 272 273 273 274 275 275 276 276 276 276 276 276 276 276 276 277 277 277 277 278 278 279 281 282 284 286 287 287 287 287 288 290 291 292 293 294 295 295 295 295 295 296
252 252 253 255 257 259 260 260 260 260 261 263 264 266 265 264 264 264 263 263 263 263 264 266 267 266 264 263 263 261 261 263 266 268 268 267 267 267 268 269 270 270 270 271 271 272 273 273 274 275 275 276 276 275 275 275 275 275 275 276 276 277 278 279 280 282 284 285 286 287 287 287 287 289 290 291 292 293 293 294 295 294 294 294 295 296
251 251 252 255 257 259 260 260 261 262 262 262 262 262 263 263 265 266 266 266 266 265 263 262 263 264 265 265 263 263 264 266 269 270 270 269 269 269 269 270 270 270 270 271 271 271 272 272 273 274 274 274 274 274 274 274 274 274 275 276 277 279 280 282 283 284 285 286 286 287 287 288 289 290 290 291 292 293 293 294 294 294 294 294 295 296
251 251 251 253 256 258 260 261 262 263 263 262 261 260 262 264 266 268 269 268 267 266 263 260 261 263 265 264 263 266 269 268 267 267 267 268 269 270 270 271 271 271 271 271 271 272 272 272 272 272 273 273 273 273 273 273 274 275 277 279 280 281 282 283 284 285 285 286 287 288 288 289 290 290 291 291 292 292 293 293 294 294 294 295 296 298
253 252 251 252 254 256 259 261 262 262 261 262 262 263 266 267 268 268 268 268 268 267 264 261 261 264 266 266 266 267 267 267 266 266 266 267 268 269 270 271 272 272 272 272 272 272 272 273 273 273 273 273 273 273 274 275 276 278 279 281 281 282 283 284 285 285 286 287 288 289 290 290 291 291 291 291 292 292 292 293 293 294 295 296 297 298
256 255 253 252 252 255 257 259 260 261 263 265 267 269 270 269 269 268 269 269 268 266 265 263 261 264 266 267 269 268 266 266 267 267 268 268 269 271 271 271 271 272 273 273 273 274 274 275 275 275 275 274 274 275 276 277 279 280 281 281 282 283 284 285 286 287 288 288 289 290 291 291 291 291 291 291 292 292 292 293 294 295 296 297 298 298
258 258 256 255 254 256 257 258 260 263 266 267 268 269 270 270 271 271 270 269 267 267 268 267 263 264 268 268 267 266 265 265 267 268 270 271 272 273 274 273 273 273 273 274 275 276 276 277 277 277 277 276 276 277 278 279 280 281 281 282 283 284 285 287 288 288 288 289 290 291 291 292 292 291 292 292 292 292 293 293 294 296 297 297 297 296
258 259 259 259 258 258 258 260 262 264 265 267 268 270 271 272 272 272 270 268 268 270 272 271 267 265 270 268 263 263 264 264 265 267 269 271 272 273 274 275 275 275 275 276 276 277 277 278 278 277 277 277 277 278 279 280 281 281 282 282 283 285 286 287 288 288 289 290 290 291 292 292 292 292 292 292 293 293 294 295 295 296 296 297 296 295
258 259 259 258 258 258 259 260 263 265 267 269 270 270 270 270 270 270 270 270 269 271 273 273 270 270 269 264 260 262 265 266 265 265 268 270 272 272 273 274 275 276 276 276 276 277 278 278 278 278 278 279 279 280 281 281 281 281 282 283 284 285 286 286 287 288 289 290 291 292 292 293 293 292 292 293 293 294 294 295 295 295 295 296 295 295
258 259 259 258 258 259 260 262 265 267 267 267 267 267 268 269 269 270 271 271 270 272 274 273 273 272 268 264 262 263 264 266 266 266 267 270 271 272 272 272 274 275 276 276 277 278 279 279 280 280 280 281 281 281 281 281 281 282 283 283 284 285 286 287 288 289 290 291 292 293 293 293 292 292 292 293 294 294 294 294 294 294 294 295 295 294
257 259 260 259 260 261 262 264 265 264 264 264 265 267 268 269 269 270 270 271 273 274 272 273 275 273 269 268 267 265 265 265 266 266 267 268 270 271 272 273 273 274 276 278 279 280 281 281 281 282 282 282 282 282 282 282 283 283 284 284 285 286 287 288 289 290 291 292 293 292 292 291 291 292 292 293 294 294 294 293 293 293 294 294 294 294
256 258 259 260 261 262 263 264 264 263 264 265 267 267 268 268 269 269 270 272 275 273 270 273 276 272 271 272 271 269 268 266 265 265 266 267 270 272 274 275 275 275 277 278 280 281 281 282 282 283 283 283 283 283 283 283 283 284 284 285 286 287 288 289 290 291 291 292 292 291 291 291 291 292 293 293 293 293 293 293 293 293 293 293 294 294
256 257 259 260 261 261 262 263 265 265 266 267 267 267 268 269 270 270 272 274 274 272 271 275 274 271 271 273 273 273 272 269 267 267 267 269 271 273 274 276 277 277 278 278 279 280 281 282 282 283 283 283 283 283 283 283 283 284 284 285 286 287 288 289 290 290 290 291 291 290 290 291 292 293 293 293 293 293 294 294 294 293 293 293 294 294
255 257 258 259 260 261 263 264 266 267 267 267 267 268 269 270 271 273 274 274 273 274 275 275 272 270 270 271 273 274 273 272 270 270 270 272 273 273 274 275 276 277 278 279 280 281 281 282 282 282 281 281 281 281 282 283 283 284 285 286 287 288 288 289 289 289 289 289 290 290 291 292 293 294 294 294 294 294 294 294 294 294 293 294 294 295
255 256 258 259 260 261 262 264 266 266 267 267 267 268 269 270 273 275 276 275 275 275 276 274 271 270 272 273 272 270 270 272 273 274 274 274 274 273 273 274 275 276 278 280 281 281 282 281 281 280 280 280 280 281 282 282 283 284 285 286 286 287 287 288 288 288 288 289 290 291 292 293 294 294 295 295 295 295 295 295 294 294 294 295 296 297
255 257 258 259 260 260 261 263 265 265 266 266 267 268 270 273 275 275 274 274 273 274 275 273 273 274 275 273 271 269 271 273 274 275 275 274 274 274 274 274 276 277 278 279 279 280 280 279 279 279 279 280 281 282 282 282 283 284 284 285 286 286 287 287 287 287 288 289 290 291 293 294 294 295 296 296 295 295 295 295 295 295 296 297 298 299
256 257 258 259 260 260 261 262 263 264 266 266 266 269 273 275 273 272 271 271 273 274 275 274 276 277 276 273 273 273 273 273 273 274 275 275 276 276 276 277 277 277 277 277 278 279 278 278 278 279 280 281 281 282 282 282 282 283 284 284 285 286 286 286 287 287 288 289 291 292 294 295 295 296 296 296 295 295 295 296 296 297 298 299 300 301
256 257 258 259 261 261 261 261 262 264 264 266 268 272 273 271 269 269 270 271 273 274 274 275 277 277 276 275 276 276 275 275 275 275 275 275 276 277 277 277 277 277 277 277 278 278 278 278 278 279 280 280 280 280 281 281 282 282 283 284 285 285 286 286 287 288 289 291 292 294 295 295 296 296 296 296 296 296 297 298 298 299 300 301 302 303
256 257 258 260 261 261 262 262 263 264 265 268 271 271 269 269 270 271 271 271 272 272 273 274 275 274 274 275 275 275 276 277 277 276 276 277 277 277 277 277 277 277 277 278 279 278 278 279 279 279 280 280 280 280 280 280 281 281 283 284 285 286 287 287 289 290 291 293 294 295 295 296 296 297 297 297 297 298 299 299 300 301 302 303 304 305
257 258 259 260 261 262 262 262 263 265 267 269 270 269 269 270 271 271 271 271 271 272 272 272 273 274 274 275 275 275 276 276 276 277 278 279 279 278 278 278 277 277 278 278 278 278 279 279 279 280 279 279 279 280 280 281 281 283 284 286 287 288 288 289 291 292 293 294 295 296 296 297 297 298 298 298 299 300 300 301 302 302 304 305 305 306
259 260 260 261 261 262 262 262 264 266 267 267 267 268 270 271 270 270 270 270 271 272 273 273 273 274 275 275 275 275 275 275 276 277 278 279 279 279 278 278 279 279 279 279 279 279 280 279 279 280 280 280 280 281 282 283 284 286 287 288 289 289 290 291 293 293 294 295 296 297 297 298 298 298 299 300 300 301 302 302 303 304 305 306 306 307
261 261 262 262 262 263 263 263 264 265 265 265 267 269 269 268 268 269 269 269 270 272 274 274 275 274 274 274 274 274 274 275 275 277 278 278 277 278 278 279 280 281 281 281 281 280 280 280 281 282 282 283 284 285 286 286 287 288 288 289 290 291 292 293 294 295 296 297 297 298 298 298 299 299 300 301 301 302 303 304 305 305 306 307 307 308
263 264 264 264 264 264 264 264 263 264 264 266 267 267 266 266 267 268 268 269 270 272 273 275 275 275 274 274 273 273 274 274 276 277 277 276 276 278 279 280 281 281 281 281 281 281 281 282 283 284 284 285 286 287 287 288 288 288 289 290 291 292 293 294 294 296 297 298 298 298 299 299 300 300 301 302 303 303 304 305 306 306 307 307 307 308
265 265 266 266 266 266 266 266 265 265 265 265 265 265 266 266 267 267 268 268 270 271 273 274 275 275 275 275 274 275 275 275 276 276 275 275 277 278 279 279 279 280 280 280 281 281 282 283 284 284 285 286 286 287 288 288 289 289 290 291 292 293 293 294 295 296 297 298 298 298 299 300 300 301 302 303 304 305 305 305 306 306 307 307 307 308
264 265 266 267 268 268 269 269 268 268 267 266 265 265 266 267 267 268 269 270 271 271 271 273 274 275 276 277 277 278 278 277 277 276 276 277 277 277 278 278 279 279 280 281 281 282 283 284 284 285 286 286 287 288 289 289 290 291 291 292 292 293 293 294 295 296 297 297 298 298 299 300 301 302 303 304 304 305 305 305 306 306 306 307 308 309
263 264 266 267 268 269 270 270 270 270 269 268 267 267 267 267 268 269 270 271 271 271 271 272 273 274 276 278 279 280 280 280 279 279 279 279 279 279 279 279 279 280 281 281 282 283 283 284 285 285 286 287 288 289 289 290 291 291 292 292 292 293 294 295 296 296 297 297 298 299 300 301 302 302 303 304 304 304 304 305 305 305 306 307 308 309
262 263 264 266 266 267 268 269 270 271 271 271 270 269 269 269 269 270 271 271 271 272 272 272 273 274 276 277 278 279 280 281 281 281 281 281 281 281 281 281 281 282 282 282 283 283 284 285 285 286 287 288 289 289 290 290 291 291 292 293 293 294 295 296 296 296 297 297 298 299 300 301 302 302 303 303 303 303 304 304 305 306 307 308 308 309
261 262 263 264 265 266 267 268 269 271 272 272 272 272 272 272 272 273 273 273 273 274 273 273 274 275 276 277 278 279 280 281 281 282 282 282 283 283 283 283 283 283 284 284 284 285 286 286 287 287 288 289 289 290 290 291 292 292 293 293 294 295 296 296 296 296 297 297 298 299 300 301 301 302 302 302 303 303 303 304 305 306 307 308 308 309
260 261 262 264 265 265 266 268 269 271 271 271 272 273 274 274 275 275 275 276 276 276 276 276 276 277 278 279 279 280 281 281 282 282 283 283 283 284 284 284 284 285 285 285 286 286 287 287 288 289 289 289 290 290 291 292 292 293 293 294 294 295 295 295 296 296 297 298 298 299 300 300 301 301 301 302 302 303 303 304 305 306 307 308 308 309
260 261 262 263 264 265 266 268 270 271 271 272 273 273 274 274 275 276 276 277 277 278 278 279 279 279 279 280 280 281 281 282 282 282 283 283 283 283 284 284 284 285 285 286 286 287 288 288 289 289 289 290 290 291 291 292 292 293 293 293 294 294 294 295 296 296 297 298 298 299 299 300 300 300 301 301 302 303 304 305 305 306 307 307 308 308
260 261 262 263 264 265 266 268 269 270 271 272 273 273 274 274 275 275 276 276 277 278 279 280 281 281 281 281 281 281 281 282 282 282 282 282 283 283 283 284 284 285 285 286 287 287 288 289 289 289 290 290 290 291 291 292 292 292 293 293 293 294 294 295 296 296 297 297 298 298 299 299 299 300 301 301 302 303 304 305 305 306 306 307 307 307
261 261 262 262 263 264 266 267 269 269 270 271 272 272 273 273 274 275 275 276 277 278 279 280 281 281 281 282 282 282 282 282 282 282 282 283 283 283 284 284 285 285 286 286 287 287 288 288 288 289 289 290 290 291 291 291 292 292 292 293 293 294 295 295 296 296 296 297 297 298 298 299 299 300 301 302 302 303 304 304 305 305 306 306 306 306
260 261 262 262 263 264 265 266 267 268 268 269 270 271 272 272 273 274 275 276 277 278 279 279 280 280 281 281 281 282 282 282 283 283 283 283 283 284 284 285 285 286 286 286 286 287 287 287 288 288 289 289 290 290 290 291 291 292 292 293 293 294 294 295 295 296 296 296 297 297 298 299 299 300 301 302 302 303 303 304 304 305 305 305 306 306
259 260 261 262 263 263 264 265 265 266 267 268 269 270 270 271 272 273 274 275 276 277 278 278 279 280 280 281 281 281 282 282 282 282 282 283 283 284 284 284 285 285 285 285 286 286 286 287 287 288 288 288 289 289 290 290 291 291 292 292 293 293 294 294 295 295 295 296 297 297 298 299 300 300 301 301 302 302 303 303 304 304 304 305 305 305
259 259 260 261 262 262 263 264 265 266 266 267 268 268 269 270 271 272 273 274 274 275 276 277 278 279 279 280 280 280 280 281 281 281 282 283 283 283 283 284 284 284 284 285 285 285 286 286 287 287 287 288 288 289 289 290 290 291 291 292 292 293 293 294 294 295 295 296 297 298 298 299 299 300 300 301 301 302 302 303 303 304 304 304 305 305
259 259 260 261 261 262 263 264 265 265 265 266 267 267 268 269 269 270 271 272 273 274 275 276 277 277 278 278 278 278 279 279 280 280 281 281 282 282 282 283 283 283 284 284 284 285 285 286 286 286 287 287 288 288 289 289 290 290 291 291 292 293 293 294 294 295 296 296 297 297 298 298 299 299 300 300 301 301 302 302 303 303 303 304 304 304
Height
10753 10755 10754 10750 10748 10751 10754 10757 10759 10759 10759 10762 10765 10765 10764 10764 10764 10765 10768 10770 10769 10771 10772 10772 10774 10772 10769 10770 10771 10771 10772 10772 10772 10773 10773 10773 10774 10775 10776 10776 10775 10775 10775 10775 10776 10775 10774 10774 10774 10774 10774 10774 10774 10773 10773 10773 10773 10773 10772 10772 10772 10771 10771 10770 10769 10768 10766 10765 10764 10763 10761 10760 10758 10757 10755 10754 10753 10751 10750 10748 10746 10744 10742 10740 10738 10736
10747 10750 10747 10742 10744 10749 10751 10751 10753 10754 10755 10757 10760 10760 10760 10760 10760 10760 10763 10765 10766 10768 10768 10767 10770 10769 10765 10766 10767 10767 10767 10766 10767 10769 10769 10769 10769 10771 10772 10772 10771 10770 10770 10771 10771 10771 10770 10770 10770 10770 10770 10770 10770 10769 10769 10769 10769 10769 10769 10768 10768 10767 10766 10766 10764 10763 10762 10761 10760 10758 10757 10755 10754 10752 10750 10749 10748 10746 10744 10743 10741 10739 10737 10734 10732 10730
10742 10744 10740 10738 10741 10744 10745 10745 10747 10750 10750 10751 10754 10755 10755 10755 10756 10757 10757 10759 10762 10764 10764 10764 10766 10766 10763 10763 10762 10763 10763 10762 10762 10764 10765 10766 10765 10765 10766 10767 10767 10766 10765 10765 10766 10766 10766 10766 10766 10766 10766 10765 10765 10765 10765 10765 10765 10765 10764 10764 10763 10762 10762 10761 10760 10759 10758 10756 10755 10754 10752 10750 10749 10747 10746 10744 10742 10740 10738 10737 10735 10733 10731 10728 10726 10723
10737 10736 10734 10735 10737 10738 10739 10740 10742 10744 10746 10746 10747 10750 10750 10749 10751 10752 10752 10755 10758 10760 10761 10760 10763 10763 10760 10759 10758 10757 10759 10758 10757 10758 10759 10762 10761 10760 10761 10762 10762 10762 10762 10761 10761 10761 10761 10762 10762 10762 10762 10761 10761 10761 10760 10760 10760 10760 10760 10759 10758 10757 10756 10755 10754 10754 10752 10751 10750 10749 10747 10745 10744 10742 10740 10738 10736 10734 10732 10730 10728 10726 10724 10721 10719 10716
10733 10730 10730 10732 10731 10731 10733 10734 10736 10739 10741 10742 10741 10743 10744 10744 10745 10747 10748 10751 10754 10756 10757 10756 10761 10761 10756 10756 10754 10750 10753 10755 10752 10753 10754 10756 10755 10755 10756 10756 10757 10758 10757 10757 10756 10756 10757 10757 10757 10757 10757 10757 10756 10756 10756 10755 10755 10755 10754 10754 10753 10752 10751 10750 10749 10748 10747 10746 10745 10743 10741 10740 10738 10736 10734 10732 10730 10728 10726 10724 10722 10719 10717 10714 10712 10709
10728 10725 10725 10727 10725 10724 10726 10728 10729 10731 10734 10737 10738 10737 10737 10739 10740 10742 10744 10747 10749 10751 10751 10752 10758 10758 10752 10751 10748 10743 10748 10752 10750 10749 10748 10749 10749 10750 10751 10751 10752 10752 10752 10752 10751 10751 10752 10752 10752 10752 10752 10751 10752 10752 10751 10750 10750 10749 10749 10748 10747 10746 10745 10744 10743 10742 10741 10740 10739 10737 10735 10734 10732 10730 10728 10726 10724 10722 10720 10717 10715 10712 10710 10707 10705 10702
10725 10720 10719 10721 10720 10718 10720 10722 10722 10724 10727 10731 10733 10731 10731 10734 10735 10737 10739 10741 10745 10747 10747 10747 10752 10755 10750 10744 10740 10741 10745 10746 10745 10744 10742 10742 10745 10746 10746 10746 10746 10747 10747 10747 10746 10746 10747 10747 10747 10747 10746 10746 10747 10746 10745 10745 10744 10744 10743 10742 10741 10740 10739 10738 10737 10736 10735 10734 10732 10731 10729 10727 10725 10723 10721 10719 10717 10715 10713 10710 10708 10705 10703 10700 10697 10694
10719 10714 10713 10715 10715 10714 10714 10713 10713 10716 10721 10726 10726 10725 10727 10729 10730 10732 10733 10735 10739 10741 10744 10743 10743 10750 10750 10738 10731 10738 10744 10740 10736 10736 10736 10739 10741 10742 10742 10742 10741 10741 10742 10742 10741 10741 10741 10741 10741 10741 10740 10740 10741 10740 10739 10739 10738 10738 10737 10736 10735 10734 10734 10732 10731 10730 10729 10727 10726 10724 10722 10719 10718 10716 10714 10712 10710 10708 10705 10703 10700 10698 10695 10692 10689 10687
10711 10710 10710 10708 10708 10709 10708 10705 10706 10710 10716 10720 10720 10719 10721 10722 10724 10726 10727 10729 10732 10737 10742 10739 10732 10742 10750 10737 10728 10733 10735 10732 10729 10729 10731 10734 10736 10739 10738 10737 10736 10735 10736 10736 10736 10736 10736 10736 10736 10735 10735 10735 10735 10734 10733 10733 10732 10731 10731 10730 10729 10728 10727 10726 10725 10724 10722 10721 10719 10716 10714 10712 10710 10708 10706 10705 10702 10700 10698 10695 10693 10690 10687 10684 10681 10679
10705 10706 10704 10702 10701 10702 10701 10700 10702 10705 10710 10713 10712 10713 10714 10715 10717 10720 10723 10725 10727 10734 10738 10730 10722 10733 10746 10740 10731 10729 10724 10722 10724 10723 10724 10727 10730 10733 10732 10732 10732 10730 10730 10730 10730 10730 10730 10730 10730 10729 10729 10729 10728 10727 10727 10727 10726 10725 10725 10724 10723 10722 10721 10719 10718 10717 10715 10713 10711 10709 10707 10705 10703 10701 10699 10697 10695 10693 10690 10688 10685 10682 10679 10676 10673 10670
10697 10697 10697 10697 10696 10695 10694 10695 10697 10698 10702 10704 10705 10705 10706 10709 10712 10715 10719 10720 10723 10731 10728 10718 10716 10727 10741 10741 10731 10725 10719 10716 10717 10716 10716 10718 10721 10724 10725 10725 10725 10724 10725 10725 10725 10725 10724 10724 10723 10723 10723 10722 10722 10722 10721 10720 10719 10719 10718 10717 10716 10715 10714 10713 10711 10710 10708 10706 10704 10702 10700 10698 10696 10694 10692 10690 10687 10685 10683 10680 10677 10674 10671 10668 10664 10661
10687 10688 10691 10691 10690 10690 10689 10688 10688 10690 10693 10696 10698 10700 10701 10705 10709 10710 10713 10713 10717 10723 10718 10711 10713 10722 10737 10737 10726 10720 10716 10713 10712 10711 10710 10710 10711 10715 10717 10718 10719 10718 10719 10719 10719 10719 10718 10718 10717 10717 10717 10716 10716 10715 10715 10714 10713 10712 10712 10710 10709 10708 10707 10706 10704 10703 10701 10699 10697 10695 10693 10691 10689 10687 10684 10682 10680 10677 10675 10672 10669 10665 10662 10659 10656 10652
10678 10680 10682 10683 10684 10684 10681 10680 10681 10684 10687 10689 10693 10695 10696 10700 10703 10704 10706 10705 10710 10714 10711 10709 10711 10719 10730 10728 10718 10715 10712 10710 10708 10704 10702 10703 10704 10706 10709 10711 10712 10712 10712 10711 10712 10712 10711 10711 10711 10710 10710 10710 10709 10709 10708 10708 10706 10706 10705 10703 10702 10701 10700 10698 10697 10695 10693 10691 10690 10688 10686 10684 10682 10680 10677 10675 10672 10669 10666 10663 10660 10657 10654 10650 10647 10643
10670 10673 10675 10676 10676 10675 10674 10675 10677 10679 10682 10685 10688 10688 10691 10694 10695 10698 10698 10698 10704 10707 10706 10707 10709 10716 10722 10716 10710 10710 10709 10707 10705 10698 10694 10695 10696 10698 10700 10702 10704 10705 10705 10705 10704 10704 10704 10704 10704 10704 10703 10703 10702 10702 10701 10701 10700 10699 10698 10696 10695 10694 10692 10691 10689 10687 10686 10684 10682 10680 10679 10677 10674 10672 10669 10667 10664 10661 10658 10655 10651 10648 10645 10641 10638 10634
10664 10668 10669 10666 10666 10668 10670 10671 10673 10674 10677 10681 10681 10682 10687 10686 10684 10689 10692 10694 10698 10700 10701 10703 10706 10712 10713 10708 10705 10706 10703 10699 10697 10693 10690 10690 10690 10691 10692 10693 10695 10697 10697 10698 10698 10697 10697 10697 10697 10697 10696 10696 10696 10695 10695 10694 10693 10692 10690 10689 10688 10686 10685 10683 10681 10680 10678 10676 10675 10673 10671 10669 10666 10664 10661 10658 10655 10652 10649 10646 10643 10639 10636 10632 10629 10625
10655 10661 10662 10658 10660 10662 10663 10666 10668 10669 10672 10674 10675 10677 10679 10674 10672 10681 10687 10689 10690 10693 10698 10699 10701 10705 10704 10703 10703 10700 10694 10688 10688 10689 10687 10686 10686 10685 10685 10686 10688 10689 10690 10690 10691 10691 10690 10690 10690 10690 10690 10689 10689 10688 10687 10686 10685 10684 10683 10682 10680 10679 10677 10675 10673 10672 10671 10669 10667 10665 10663 10661 10658 10656 10653 10650 10647 10644 10640 10637 10634 10631 10627 10623 10620 10616
10646 10651 10654 10653 10655 10655 10656 10659 10660 10663 10666 10669 10671 10670 10667 10664 10666 10672 10679 10682 10682 10688 10695 10694 10695 10696 10696 10699 10697 10691 10687 10683 10682 10683 10681 10680 10680 10679 10680 10681 10681 10682 10683 10683 10683 10683 10683 10683 10683 10683 10683 10682 10682 10681 10680 10679 10678 10676 10675 10674 10672 10671 10669 10667 10666 10665 10663 10662 10659 10657 10654 10652 10650 10647 10644 10641 10637 10635 10631 10628 10625 10621 10618 10614 10610 10606
10637 10643 10648 10648 10648 10648 10648 10650 10653 10658 10661 10662 10663 10661 10657 10658 10661 10664 10669 10675 10675 10681 10689 10689 10688 10690 10691 10694 10689 10682 10683 10682 10679 10677 10673 10671 10671 10672 10673 10673 10674 10675 10674 10675 10675 10675 10676 10675 10676 10676 10675 10675 10674 10673 10672 10671 10670 10668 10667 10666 10665 10663 10662 10660 10659 10657 10655 10653 10651 10649 10646 10643 10641 10638 10635 10632 10628 10625 10622 10619 10615 10612 10608 10605 10601 10597
10629 10636 10641 10643 10643 10642 10641 10644 10649 10652 10652 10651 10652 10651 10650 10653 10657 10657 10660 10666 10667 10671 10679 10682 10683 10686 10687 10687 10683 10680 10679 10677 10674 10671 10665 10662 10662 10664 10666 10666 10667 10667 10667 10668 10668 10667 10668 10667 10668 10668 10667 10667 10666 10665 10664 10662 10662 10660 10659 10659 10657 10655 10654 10652 10651 10649 10647 10645 10642 10640 10637 10634 10632 10629 10625 10622 10619 10616 10612 10609 10605 10602 10598 10595 10590 10586
10619 10626 10635 10639 10637 10635 10636 10640 10642 10643 10641 10641 10643 10645 10647 10649 10650 10649 10651 10656 10658 10660 10668 10675 10681 10684 10682 10680 10679 10677 10673 10668 10666 10662 10658 10656 10655 10656 10658 10659 10659 10659 10659 10660 10659 10659 10659 10659 10660 10660 10659 10658 10657 10656 10655 10654 10654 10653 10652 10650 10648 10647 10646 10644 10642 10640 10638 10636 10633 10630 10628 10625 10622 10619 10615 10612 10609 10606 10603 10599 10596 10592 10588 10584 10580 10575
10610 10616 10626 10630 10629 10630 10634 10634 10632 10631 10633 10636 10639 10641 10641 10640 10640 10641 10644 10648 10646 10648 10657 10667 10678 10683 10678 10675 10674 10668 10664 10661 10658 10655 10651 10649 10649 10649 10651 10653 10653 10653 10652 10652 10652 10651 10652 10652 10652 10652 10651 10650 10649 10648 10647 10646 10646 10645 10643 10641 10639 10638 10636 10634 10633 10631 10629 10626 10624 10621 10618 10615 10612 10608 10605 10602 10599 10596 10593 10589 10585 10581 10577 10573 10569 10564
10602 10605 10612 10617 10623 10627 10628 10626 10626 10627 10630 10632 10633 10633 10633 10631 10630 10631 10636 10638 10634 10640 10651 10659 10672 10680 10673 10671 10669 10659 10654 10654 10652 10648 10645 10643 10643 10642 10642 10644 10645 10647 10646 10645 10645 10644 10645 10645 10645 10644 10642 10641 10640 10640 10639 10638 10637 10636 10634 10632 10630 10629 10627 10625 10624 10621 10619 10616 10613 10611 10608 10605 10601 10598 10595 10592 10589 10586 10582 10579 10575 10570 10566 10562 10558 10553
10594 10594 10601 10608 10616 10619 10619 10620 10622 10623 10624 10624 10626 10627 10625 10624 10623 10620 10623 10627 10627 10637 10646 10648 10662 10675 10669 10664 10659 10649 10646 10648 10646 10644 10639 10636 10637 10636 10635 10636 10636 10638 10639 10638 10638 10637 10637 10637 10636 10635 10634 10633 10632 10631 10631 10630 10628 10626 10624 10622 10621 10619 10618 10616 10614 10611 10608 10606 10603 10600 10597 10594 10591 10587 10584 10581 10578 10575 10572 10568 10563 10559 10555 10551 10547 10543
10586 10585 10591 10598 10603 10609 10612 10614 10617 10618 10618 10619 10621 10618 10613 10614 10614 10610 10612 10617 10622 10635 10640 10636 10650 10666 10660 10652 10648 10642 10640 10640 10639 10638 10633 10630 10631 10630 10629 10629 10628 10629 10630 10629 10629 10629 10629 10629 10628 10627 10626 10625 10624 10623 10622 10621 10618 10616 10615 10612 10611 10610 10608 10606 10603 10601 10598 10595 10593 10590 10586 10583 10580 10576 10573 10571 10568 10565 10561 10556 10552 10549 10545 10541 10536 10532
10576 10574 10579 10586 10592 10600 10606 10610 10613 10613 10611 10610 10609 10607 10605 10606 10605 10604 10606 10605 10615 10633 10632 10624 10641 10655 10645 10639 10641 10638 10635 10632 10629 10630 10628 10625 10623 10622 10622 10623 10622 10621 10620 10621 10622 10622 10622 10621 10620 10619 10617 10616 10616 10615 10613 10611 10608 10607 10604 10602 10601 10600 10598 10596 10593 10590 10588 10585 10582 10579 10576 10573 10569 10566 10563 10560 10557 10554 10549 10545 10541 10538 10534 10530 10525 10520
10566 10564 10568 10575 10582 10592 10601 10605 10605 10601 10597 10597 10600 10601 10599 10599 10597 10597 10597 10597 10611 10626 10620 10617 10633 10641 10633 10631 10632 10629 10627 10626 10623 10622 10621 10619 10615 10613 10614 10616 10616 10614 10613 10614 10614 10614 10614 10613 10612 10611 10608 10607 10606 10605 10603 10600 10598 10596 10594 10592 10590 10589 10587 10584 10582 10580 10577 10575 10572 10569 10566 10562 10558 10556 10553 10550 10547 10542 10538 10534 10530 10527 10523 10518 10513 10507
10558 10557 10561 10567 10574 10584 10593 10593 10589 10587 10587 10590 10594 10593 10590 10591 10590 10588 10589 10598 10608 10606 10607 10619 10623 10622 10626 10623 10617 10618 10618 10616 10616 10613 10612 10612 10610 10609 10607 10607 10608 10608 10607 10607 10607 10606 10605 10604 10603 10602 10600 10598 10596 10594 10592 10590 10588 10586 10584 10582 10580 10578 10576 10574 10572 10569 10567 10564 10562 10558 10554 10551 10548 10546 10543 10539 10536 10531 10527 10523 10519 10516 10511 10506 10500 10494
10550 10551 10556 10560 10565 10574 10583 10581 10575 10576 10580 10583 10584 10582 10582 10582 10581 10581 10587 10599 10595 10584 10600 10621 10609 10606 10622 10615 10602 10607 10606 10603 10607 10606 10604 10607 10606 10605 10602 10599 10600 10599 10598 10599 10599 10598 10597 10596 10595 10593 10591 10589 10586 10584 10583 10580 10579 10577 10575 10573 10570 10568 10567 10564 10562 10560 10557 10555 10551 10547 10543 10541 10538 10535 10532 10528 10524 10520 10516 10511 10507 10503 10498 10493 10487 10480
10541 10544 10550 10553 10555 10564 10573 10571 10565 10565 10569 10572 10573 10574 10576 10574 10574 10579 10585 10589 10580 10571 10594 10612 10595 10595 10615 10607 10596 10599 10592 10588 10595 10596 10597 10601 10599 10598 10596 10593 10592 10591 10590 10591 10590 10589 10588 10587 10586 10584 10582 10580 10577 10575 10574 10571 10569 10567 10565 10563 10560 10559 10557 10554 10552 10550 10547 10544 10540 10535 10533 10530 10528 10525 10521 10517 10513 10508 10504 10499 10495 10490 10485 10479 10473 10467
10533 10537 10543 10544 10546 10557 10566 10563 10556 10553 10556 10561 10563 10565 10568 10569 10573 10577 10576 10575 10569 10565 10583 10593 10581 10590 10608 10598 10587 10587 10579 10578 10584 10586 10589 10590 10588 10589 10588 10585 10585 10584 10583 10583 10581 10581 10579 10577 10576 10574 10572 10570 10568 10567 10566 10563 10561 10558 10556 10554 10551 10549 10547 10544 10543 10539 10536 10533 10528 10525 10522 10519 10516 10513 10510 10505 10500 10496 10491 10486 10482 10476 10471 10465 10459 10453
10528 10533 10537 10535 10536 10548 10560 10557 10545 10541 10543 10548 10551 10556 10565 10571 10571 10568 10564 10562 10558 10558 10570 10572 10568 10587 10600 10582 10570 10574 10573 10573 10575 10575 10577 10577 10576 10577 10577 10576 10577 10577 10575 10574 10572 10572 10570 10567 10565 10564 10562 10562 10560 10559 10557 10554 10552 10549 10547 10544 10541 10539 10536 10534 10531 10528 10524 10522 10517 10514 10512 10508 10505 10502 10498 10493 10488 10483 10478 10473 10468 10463 10457 10451 10445 10439
10523 10525 10528 10527 10525 10540 10556 10547 10533 10532 10531 10530 10542 10559 10568 10567 10559 10552 10551 10552 10550 10552 10557 10556 10560 10580 10582 10563 10559 10567 10564 10562 10564 10565 10566 10566 10566 10566 10566 10567 10567 10566 10564 10563 10563 10563 10560 10557 10555 10554 10554 10553 10552 10550 10547 10544 10542 10539 10536 10533 10531 10529 10526 10523 10520 10516 10513 10510 10506 10504 10500 10496 10493 10490 10486 10481 10475 10470 10464 10459 10454 10449 10443 10437 10431 10425
10514 10516 10519 10518 10516 10532 10545 10533 10523 10524 10516 10520 10546 10564 10561 10551 10542 10539 10543 10547 10545 10543 10543 10546 10555 10566 10562 10552 10554 10555 10550 10550 10553 10554 10555 10556 10556 10555 10555 10555 10554 10553 10552 10553 10554 10553 10549 10547 10545 10545 10545 10543 10542 10540 10537 10534 10532 10528 10525 10523 10521 10519 10515 10512 10508 10505 10502 10498 10495 10492 10488 10484 10481 10477 10473 10468 10462 10456 10450 10444 10439 10435 10429 10423 10417 10410
10505 10507 10510 10509 10508 10521 10531 10523 10513 10509 10508 10526 10552 10554 10543 10539 10535 10531 10534 10538 10537 10534 10533 10538 10546 10552 10548 10544 10544 10543 10542 10543 10542 10540 10543 10546 10545 10543 10542 10542 10542 10541 10541 10542 10542 10540 10537 10536 10535 10534 10534 10532 10530 10528 10526 10523 10520 10516 10514 10512 10509 10507 10503 10500 10497 10493 10489 10486 10483 10480 10476 10471 10468 10464 10459 10453 10447 10442 10436 10430 10424 10420 10414 10408 10402 10395
10494 10497 10499 10499 10500 10508 10516 10511 10500 10497 10512 10533 10541 10535 10533 10534 10529 10522 10522 10526 10527 10524 10524 10527 10534 10541 10539 10535 10534 10534 10534 10533 10530 10531 10534 10534 10532 10529 10527 10528 10529 10529 10531 10532 10531 10528 10526 10525 10524 10523 10521 10519 10517 10515 10513 10510 10507 10505 10503 10500 10497 10494 10490 10487 10485 10481 10476 10474 10471 10467 10463 10459 10454 10449 10444 10439 10433 10428 10422 10415 10410 10404 10398 10392 10386 10379
10484 10486 10488 10489 10490 10493 10498 10498 10492 10495 10511 10523 10524 10527 10530 10526 10519 10512 10508 10514 10519 10516 10513 10515 10523 10530 10528 10523 10523 10523 10521 10521 10522 10525 10527 10524 10519 10514 10512 10514 10515 10517 10519 10519 10519 10518 10515 10513 10512 10509 10507 10506 10504 10502 10500 10497 10495 10493 10490 10487 10484 10481 10477 10475 10472 10467 10464 10461 10458 10454 10450 10445 10440 10434 10429 10424 10419 10413 10407 10400 10394 10388 10382 10376 10369 10362
10473 10474 10476 10477 10478 10481 10483 10484 10485 10487 10497 10510 10520 10524 10519 10511 10507 10500 10494 10504 10516 10512 10504 10503 10510 10516 10514 10511 10511 10510 10508 10509 10513 10519 10518 10510 10504 10501 10500 10502 10504 10505 10506 10505 10505 10504 10501 10499 10497 10495 10493 10491 10489 10487 10485 10483 10482 10480 10477 10474 10471 10467 10464 10461 10457 10453 10451 10449 10445 10440 10435 10430 10425 10420 10415 10410 10404 10398 10391 10385 10378 10372 10365 10359 10353 10346
10461 10462 10465 10463 10464 10468 10469 10469 10471 10472 10486 10508 10516 10510 10501 10498 10497 10488 10480 10495 10511 10508 10497 10493 10496 10501 10500 10498 10499 10498 10496 10498 10506 10510 10503 10493 10492 10493 10492 10493 10493 10493 10493 10491 10490 10489 10487 10485 10483 10481 10479 10477 10475 10473 10471 10469 10468 10466 10464 10461 10457 10454 10451 10447 10443 10441 10439 10435 10431 10425 10421 10415 10410 10405 10400 10395 10389 10382 10376 10369 10362 10355 10349 10343 10337 10330
10449 10451 10453 10449 10448 10454 10456 10456 10457 10460 10477 10498 10501 10493 10489 10487 10484 10473 10469 10487 10506 10502 10489 10483 10484 10486 10486 10484 10486 10486 10485 10488 10496 10496 10487 10482 10484 10485 10483 10483 10482 10481 10480 10479 10477 10476 10473 10472 10470 10468 10466 10464 10462 10460 10458 10457 10455 10453 10450 10447 10444 10441 10437 10433 10431 10430 10426 10421 10416 10411 10406 10401 10396 10391 10385 10379 10373 10367 10360 10354 10346 10340 10334 10328 10321 10315
10436 10438 10439 10436 10437 10442 10443 10443 10445 10451 10465 10479 10481 10480 10477 10473 10469 10462 10462 10480 10494 10487 10477 10476 10475 10474 10474 10473 10473 10473 10473 10476 10481 10480 10475 10474 10475 10473 10472 10472 10470 10469 10469 10467 10465 10463 10461 10459 10457 10455 10453 10451 10449 10447 10445 10443 10442 10439 10436 10433 10430 10427 10423 10421 10420 10418 10412 10407 10402 10397 10392 10387 10382 10376 10370 10364 10359 10352 10345 10339 10332 10326 10320 10313 10306 10300
10424 10425 10426 10426 10428 10430 10430 10429 10431 10438 10451 10461 10463 10463 10462 10457 10456 10455 10457 10467 10472 10469 10468 10469 10467 10466 10465 10462 10462 10462 10461 10462 10465 10465 10462 10462 10462 10461 10460 10459 10458 10458 10457 10454 10453 10452 10449 10448 10446 10443 10441 10438 10436 10434 10432 10429 10427 10424 10422 10419 10416 10412 10410 10409 10407 10403 10397 10393 10388 10382 10378 10372 10367 10362 10356 10350 10344 10337 10331 10324 10318 10311 10304 10297 10291 10284
10414 10414 10414 10416 10418 10419 10419 10418 10416 10424 10440 10447 10445 10445 10444 10441 10443 10447 10450 10451 10453 10457 10459 10457 10456 10457 10456 10454 10454 10453 10451 10451 10452 10451 10450 10449 10449 10448 10447 10447 10447 10445 10444 10443 10441 10439 10438 10436 10434 10431 10428 10426 10423 10421 10418 10415 10412 10410 10407 10405 10400 10398 10397 10395 10392 10387 10382 10378 10373 10368 10363 10358 10352 10347 10341 10335 10329 10323 10317 10310 10303 10297 10289 10282 10275 10268
10404 10402 10401 10406 10409 10409 10408 10406 10406 10415 10429 10433 10427 10427 10429 10428 10430 10434 10437 10437 10440 10444 10445 10443 10444 10446 10445 10444 10444 10443 10441 10441 10440 10439 10438 10437 10435 10435 10434 10434 10433 10431 10431 10430 10428 10426 10425 10423 10421 10418 10416 10413 10410 10407 10404 10401 10398 10396 10393 10389 10385 10383 10382 10380 10375 10371 10367 10362 10357 10353 10348 10343 10338 10332 10326 10321 10315 10309 10303 10295 10288 10282 10275 10267 10260 10253
10391 10392 10392 10397 10399 10396 10394 10396 10399 10406 10415 10416 10413 10415 10417 10415 10417 10419 10421 10423 10426 10427 10429 10430 10431 10431 10432 10433 10432 10431 10431 10430 10428 10427 10426 10424 10423 10422 10421 10421 10420 10419 10418 10416 10414 10414 10412 10409 10408 10405 10402 10400 10397 10393 10390 10388 10385 10382 10379 10374 10371 10370 10367 10363 10359 10355 10351 10346 10342 10338 10333 10328 10323 10317 10312 10306 10300 10294 10288 10280 10273 10267 10260 10252 10245 10237
10380 10382 10384 10386 10386 10384 10384 10388 10392 10395 10399 10402 10403 10404 10403 10403 10404 10406 10407 10409 10410 10411 10414 10416 10416 10417 10418 10419 10418 10418 10418 10416 10415 10415 10413 10412 10411 10410 10408 10408 10407 10406 10405 10403 10402 10400 10398 10396 10394 10391 10388 10385 10383 10380 10377 10375 10372 10368 10364 10360 10358 10355 10351 10347 10344 10340 10335 10331 10327 10322 10318 10313 10308 10302 10296 10290 10284 10278 10272 10265 10259 10252 10244 10237 10230 10222
10367 10371 10374 10374 10373 10373 10375 10378 10382 10384 10386 10389 10390 10390 10389 10390 10391 10392 10393 10395 10396 10398 10400 10401 10401 10402 10402 10402 10404 10404 10403 10402 10402 10401 10400 10399 10398 10396 10395 10394 10392 10391 10391 10389 10387 10385 10384 10381 10379 10376 10373 10371 10368 10366 10364 10361 10358 10354 10350 10346 10343 10339 10335 10332 10329 10324 10320 10316 10311 10307 10302 10297 10292 10286 10280 10274 10268 10262 10256 10249 10243 10236 10229 10222 10214 10207
10355 10359 10361 10361 10362 10363 10364 10367 10371 10372 10373 10375 10377 10376 10376 10376 10377 10379 10380 10382 10383 10384 10385 10385 10385 10385 10386 10386 10387 10387 10387 10388 10387 10386 10385 10384 10382 10380 10380 10378 10377 10377 10375 10373 10372 10370 10368 10366 10363 10361 10359 10356 10354 10352 10349 10346 10343 10339 10335 10331 10327 10324 10320 10317 10313 10310 10305 10300 10296 10291 10286 10280 10275 10269 10263 10257 10251 10245 10239 10233 10227 10220 10214 10207 10199 10191
10344 10346 10347 10348 10350 10353 10355 10357 10359 10359 10360 10363 10364 10364 10364 10363 10363 10365 10367 10368 10369 10369 10369 10369 10369 10370 10370 10370 10371 10371 10371 10370 10369 10369 10367 10366 10365 10364 10363 10362 10362 10361 10359 10358 10356 10354 10352 10350 10348 10345 10344 10342 10340 10337 10334 10331 10328 10324 10320 10315 10311 10307 10305 10301 10298 10294 10289 10284 10279 10274 10269 10263 10257 10251 10246 10239 10233 10227 10221 10216 10210 10204 10198 10191 10183 10175
10333 10335 10336 10336 10338 10341 10344 10346 10346 10346 10349 10352 10353 10353 10352 10351 10352 10352 10353 10353 10354 10354 10354 10354 10354 10354 10355 10355 10355 10354 10354 10352 10352 10351 10350 10349 10349 10348 10347 10347 10346 10344 10343 10342 10340 10338 10336 10334 10332 10330 10328 10326 10324 10321 10318 10315 10312 10308 10304 10300 10295 10291 10288 10285 10281 10278 10273 10268 10263 10257 10251 10246 10240 10234 10228 10222 10216 10210 10205 10199 10193 10187 10181 10173 10166 10158
10322 10323 10323 10324 10326 10328 10332 10333 10333 10336 10339 10340 10340 10341 10341 10341 10341 10341 10340 10339 10340 10340 10341 10341 10341 10341 10341 10340 10338 10337 10336 10335 10334 10334 10334 10334 10333 10332 10332 10331 10329 10328 10327 10325 10323 10322 10320 10318 10316 10314 10312 10309 10307 10305 10302 10299 10296 10292 10289 10284 10280 10275 10271 10267 10264 10259 10255 10250 10245 10240 10235 10229 10223 10217 10212 10206 10200 10194 10188 10182 10176 10170 10163 10156 10148 10141
10306 10307 10308 10311 10314 10318 10320 10321 10321 10325 10328 10328 10328 10329 10329 10330 10330 10329 10328 10327 10327 10327 10328 10328 10328 10328 10326 10324 10322 10321 10320 10319 10319 10319 10319 10319 10318 10317 10316 10314 10312 10311 10310 10308 10307 10306 10304 10301 10299 10297 10294 10293 10291 10288 10285 10282 10278 10275 10271 10267 10263 10259 10254 10250 10246 10241 10237 10232 10227 10223 10218 10212 10206 10200 10195 10189 10183 10177 10171 10165 10158 10152 10146 10139 10131 10124